Regional Weather Roundup
Issued by NWS Northern Indiana

Home | Current Version | Previous Version | Graphics & Text | Print | Product List | Glossary On
Versions: 1 2 3 4 5 6 7 8 9 10 11 12 13 14 15 16 17 18 19 20 21 22 23 24 25 26 27 28 29 30 31 32 33 34 35 36 37 38 39 40 41 42 43 44 45 46 47 48 49 50
095
ASUS43 KIWX 110510
RWRIWX

KIWX WEATHER ROUNDUP
NATIONAL WEATHER SERVICE NORTHERN INDIANA
1200 AM EST THU FEB 11 2016

NOTE: "FAIR" INDICATES FEW OR NO CLOUDS BELOW 12,000 FEET WITH NO
SIGNIFICANT WEATHER AND/OR OBSTRUCTIONS TO VISIBILITY.

* THESE STATIONS ARE NOT UNDER NWS QUALITY CONTROL. THEY ALSO MAY NOT
  REPORT WEATHER SUCH AS PRECIPITATION OR FOG.

INZ001>027-110600-
NORTHERN INDIANA

CITY           SKY/WX    TMP DP  RH WIND       PRES   REMARKS
GARY*          CLEAR     15   1  54 W9        30.17S WCI   3
VALPARAISO     CLOUDY    14   6  70 W12       30.15R WCI   0
MICHIGAN CITY* FLURRIES  18  10  73 W8        30.14S WCI   7
LAPORTE*       CLOUDY    17   9  70 W10       30.13R WCI   5
KNOX*          CLOUDY    14  10  85 W9        30.14R WCI   2
SOUTH BEND     LGT SNOW  12  10  92 SW6       30.11S FOG     WCI   3
GOSHEN         CLOUDY    14   9  80 W9        30.09S WCI   2
MONTICELLO*    CLEAR     11   2  67 W5        30.15R WCI   3
LOGANSPORT*    CLEAR     14   1  57 NW3       30.15R
ROCHESTER*     CLOUDY    18   9  68 W9        30.12F WCI   6
WARSAW*        CLOUDY    16  10  79 W9        30.10S WCI   4
ANGOLA*        CLOUDY    12   9  85 W3        30.05R
FORT WAYNE     MOCLDY    14   5  67 W12       30.10R WCI   0
HUNTINGTON*    CLOUDY    13   2  61 W7        30.11R WCI   3
PERU/GRISSOM   PTCLDY    14   5  67 NW6       30.11S WCI   5
MARION*        PTCLDY    12   4  69 W6        30.13S WCI   3

$$
INZ028>050-110600-
CENTRAL INDIANA

CITY           SKY/WX    TMP DP  RH WIND       PRES   REMARKS
LAFAYETTE      CLEAR      8   4  83 CALM      30.16R
KOKOMO*        CLOUDY    16   5  62 NW7       30.13R WCI   6
MUNCIE*        LGT SNOW  15   7  70 CALM      30.12R
INDIANAPOLIS   MOCLDY    13   5  70 W5        30.14R WCI   5

$$
MIZ043>046-050>051-056>058-064>065-071>073-077>080-110600-
SOUTHWEST LOWER MICHIGAN

CITY           SKY/WX    TMP DP  RH WIND       PRES   REMARKS
BATTLE CREEK   MOCLDY    13   4  67 W3        30.06R
BENTON HARBOR  LGT SNOW  18  11  74 NW5       30.10S WCI  11
COLDWATER*     CLOUDY    14   6  70 W5        30.06R WCI   6
HILLSDALE*     CLEAR     11   2  67 NW7       30.02R WCI   0
HOLLAND        LGT SNOW  16  10  77 N6        30.09R WCI   7
GRAND RAPIDS   MOCLDY    14   9  80 NW7       30.06R WCI   4
KALAMAZOO      CLOUDY    14   6  70 W7        30.07R WCI   4
STURGIS*       CLOUDY    14  10  83 W3        30.07R
THREE RIVERS*  CLOUDY    15  11  83 W6        30.09R WCI   6

$$
OHZ001>008-015>018-024>025-110600-
NORTHWEST OHIO

CITY           SKY/WX    TMP DP  RH WIND       PRES   REMARKS
DEFIANCE       CLOUDY    16   9  74 W6        30.09R WCI   7
FINDLAY        MOCLDY    15   8  73 W16       30.05R WCI  -1
TOLEDO EXPRESS CLEAR     13   2  61 W9        30.05R WCI   1
TOLEDO METCALF PTCLDY    15   3  59 NW15      30.06R WCI   0
LIMA           CLOUDY    14   6  70 W15G23    30.06S WCI  -1

$$
AND FOR LAKE MICHIGAN COASTAL AND OPEN LAKE BUOY OBSERVATIONS

STATION/POSITION TEMP    WIND        PRES    VSBY  WAVE
                 AIR SEA DIR/SP/G                  HT/PER
                 (F)     (DEG/KT/KT) (MB)    (MI)  (FT/S)
CALUMET HARBOR    13     300/  9/ 11 1020.8R
MICHIGAN CITY     17     280/ 13/ 19   N/A
BURNS HARBOR      17     290/ 12/ 18 1021.3R
SAINT JOSEPH      20     290/ 14/ 18 1020.3R

$$
&&




USA.gov is the U.S. government's official web portal to all federal, state and local government web resources and services.